Weather History for KNKT - January, 2013

Change the Weather History Date:

Tuesday, January 22, 2013

  Actual Average (KEWN) Record (KEWN)
Temperature  
Mean Temperature 41 °F 44 °F  
Max Temperature 50 °F 55 °F 74 °F (1962)
Min Temperature 30 °F 34 °F 13 °F (1970)
Degree Days  
Heating Degree Days 24 21  
Month to date heating degree days 462  
Since 1 July heating degree days 1456  
Cooling Degree Days 0 0  
Month to date cooling degree days 0  
Year to date cooling degree days 0  
Moisture  
Dew Point 12 °F    
Average Humidity 31    
Maximum Humidity 48    
Minimum Humidity 19    
Precipitation  
Precipitation 0.00 in 0.12 in 2.71 in (1966)
Month to date precipitation 2.87  
Year to date precipitation 2.87  
Snow  
Snow - - - ()
Month to date snowfall  
Since 1 July snowfall  
Snow Depth -    
Sea Level Pressure  
Sea Level Pressure 30.14 in    
Wind  
Wind Speed 10 mph ()    
Max Wind Speed 18 mph    
Max Gust Speed 24 mph    
Visibility 10.0 miles    
Events      
T = Trace of Precipitation, MM = Missing Value Source: Averaged Metar Reports

Daily Weather History Graph

Daily Weather History Graph

Search for Another Location

Airport or City:

Trip Planner

Search our weather history database for the weather conditions in past years. The results will help you decide how hot, cold, wet, or windy it might be!

Date:

Astronomy

Jan. 22, 2013 Rise Set
Actual Time 7:12 AM EST 5:26 PM EST
Civil Twilight 6:45 AM EST 5:53 PM EST
Nautical Twilight 6:14 AM EST 6:24 PM EST
Astronomical Twilight 5:44 AM EST 6:54 PM EST
Moon 1:49 PM EST (1/22) 3:30 AM EST (1/22)
Length of Visible Light 11h 08m
Length of Day
10h 14m
Waxing Gibbous, 82% of the Moon is Illuminated
Jan 22
Waxing Gibbous
Jan 26
Full
Feb 3
Last Quarter
Feb 10
New
Feb 17
First Quarter

Hourly Weather History & Observations

Time (EST) Temp. Windchill Dew Point Humidity Pressure Visibility Wind Dir Wind Speed Gust Speed Precip Events Conditions
12:54 AM 50.0 °F - 30.9 °F 48% 29.95 in 10.0 mi West 9.2 mph - N/A   Clear
1:54 AM 48.0 °F - 27.0 °F 44% 29.96 in 10.0 mi WNW 9.2 mph - N/A   Clear
2:54 AM 46.9 °F - 21.0 °F 36% 29.98 in 10.0 mi NW 11.5 mph - N/A   Clear
3:54 AM 46.0 °F 41.4 °F 19.9 °F 35% 29.99 in 10.0 mi NW 9.2 mph - N/A   Clear
4:54 AM 44.1 °F 39.5 °F 19.9 °F 38% 30.02 in 10.0 mi WNW 8.1 mph - N/A   Clear
5:54 AM 42.1 °F 35.7 °F 19.0 °F 40% 30.04 in 10.0 mi NNW 11.5 mph 18.4 mph N/A   Clear
6:54 AM 39.9 °F 31.4 °F 15.1 °F 36% 30.10 in 10.0 mi North 16.1 mph - N/A   Clear
7:54 AM 39.0 °F 29.6 °F 15.1 °F 38% 30.12 in 10.0 mi North 18.4 mph 24.2 mph N/A   Scattered Clouds
8:54 AM 39.0 °F 31.4 °F 10.9 °F 32% 30.16 in 10.0 mi North 12.7 mph 20.7 mph N/A   Partly Cloudy
9:54 AM 39.9 °F 30.8 °F 10.9 °F 31% 30.19 in 10.0 mi NNW 18.4 mph 21.9 mph N/A   Partly Cloudy
10:54 AM 42.1 °F 34.2 °F 10.9 °F 28% 30.19 in 10.0 mi North 16.1 mph 21.9 mph N/A   Partly Cloudy
11:54 AM 42.1 °F 34.2 °F 10.9 °F 28% 30.17 in 10.0 mi NNW 16.1 mph 20.7 mph N/A   Partly Cloudy
12:54 PM 44.1 °F 36.8 °F 9.0 °F 24% 30.16 in 10.0 mi NNW 16.1 mph - N/A   Clear
1:54 PM 44.1 °F 37.1 °F 9.0 °F 24% 30.14 in 10.0 mi North 15.0 mph 21.9 mph N/A   Partly Cloudy
2:54 PM 44.1 °F 39.0 °F 3.9 °F 19% 30.14 in 10.0 mi WNW 9.2 mph 19.6 mph N/A   Partly Cloudy
3:54 PM 43.0 °F 35.7 °F 3.0 °F 19% 30.15 in 10.0 mi WNW 15.0 mph - N/A   Clear
4:54 PM 41.0 °F 33.9 °F 3.0 °F 21% 30.18 in 10.0 mi NW 12.7 mph - N/A   Clear
5:54 PM 37.9 °F 34.4 °F 5.0 °F 25% 30.21 in 10.0 mi NNW 4.6 mph - N/A   Clear
6:54 PM 37.0 °F 32.4 °F 7.0 °F 29% 30.23 in 10.0 mi North 5.8 mph - N/A   Clear
7:54 PM 35.1 °F 28.6 °F 5.0 °F 28% 30.25 in 10.0 mi NNE 8.1 mph - N/A   Clear
8:54 PM 34.0 °F 28.0 °F 3.0 °F 27% 30.25 in 10.0 mi North 6.9 mph - N/A   Clear
9:54 PM 33.1 °F 27.7 °F 3.9 °F 29% 30.26 in 10.0 mi NNE 5.8 mph - N/A   Clear
10:54 PM 32.0 °F 28.7 °F 7.0 °F 35% 30.26 in 10.0 mi NE 3.5 mph - N/A   Clear
11:54 PM 30.9 °F 24.3 °F 8.1 °F 38% 30.28 in 10.0 mi NNE 6.9 mph - N/A   Clear